Regional Weather Roundup
Issued by NWS

Home | Current Version | Previous Version | Graphics & Text | Print | Product List | Glossary On
Versions: 1 2 3 4 5 6 7 8 9 10 11 12 13 14 15 16 17 18 19 20 21 22 23 24 25 26 27 28 29 30 31 32 33 34 35 36 37 38 39 40 41 42 43 44 45 46 47 48 49 50
000
ASUS43 KLOT 232006
RWRIL

ILLINOIS REGIONAL WEATHER ROUNDUP
NATIONAL WEATHER SERVICE CHICAGO/ROMEOVILLE IL
200 PM CST SUN NOV 23 2014

NOTE: "FAIR" INDICATES FEW OR NO CLOUDS BELOW 12,000 FEET WITH NO
SIGNIFICANT WEATHER AND/OR OBSTRUCTIONS TO VISIBILITY.

* THESE STATIONS ARE NOT UNDER NWS QUALITY CONTROL. THEY ALSO MAY NOT
  REPORT WEATHER SUCH AS PRECIPITATION OR FOG.

ILZ001-002-007-009-015-016-024-232100-
NORTHWEST ILLINOIS

CITY           SKY/WX    TMP DP  RH WIND       PRES   REMARKS
MOLINE         LGT RAIN  53  50  89 SE12      29.40F FOG
STERLING*      CLOUDY    52  48  87 SE7       29.45F
SAVANNA*       DRIZZLE   50  48  93 SE13      29.43F
$$

ILZ003-004-008-010-011-017-018-232100-
NORTH CENTRAL ILLINOIS

CITY           SKY/WX    TMP DP  RH WIND       PRES   REMARKS
ROCKFORD       LGT RAIN  50  47  89 SE12      29.50F FOG
FREEPORT*      CLOUDY    48  47  97 SE13      29.48F FOG
ROCHELLE*      CLOUDY    49  47  94 SE14      29.49F FOG
DE KALB*       CLOUDY    47  46  95 SE14      29.51F
PERU*          RAIN      51  48  90 SE9       29.48F
$$

ILZ005-006-012>014-019>023-232100-
NORTHEAST ILLINOIS

CITY           SKY/WX    TMP DP  RH WIND       PRES   REMARKS
CHICAGO-OHARE  LGT RAIN  51  48  89 SE10      29.52F
CHICAGO-MIDWAY LGT RAIN  53  48  83 SE12      29.53F
AURORA         CLOUDY    51  47  86 SE10      29.51F FOG
LANSING*       RAIN      50  47  90 SE7       29.55F
JOLIET*        LGT RAIN  50  48  93 SE7       29.51F
WAUKEGAN       LGT RAIN  46  44  93 SE10      29.52F FOG
DUPAGE AIRPORT LGT RAIN  50  48  93 S10       29.51F
KANKAKEE*      LGT RAIN  51  50  94 SE10G18   29.53F
WHEELING       LGT RAIN  51  48  89 SE9       29.55F FOG
MORRIS*        LGT RAIN  52  50  93 SE13G20   29.49F
ROMEOVILLE*    LGT RAIN  50  48  93 SE10      29.51F
NORTHERLY ISL    N/A     43  41  93 SE5         N/A
$$

LMZ740>746-232100-
SOUTHERN LAKE MICHIGAN

STATION/POSITION SKY/WX   TEMP    WIND        PRES    VSBY  WAVE
                          AIR SEA DIR/SP/G                  HT/PER
                          (F)     (DEG/KT/KT) (MB)    (MI)  (FT/S)
SOUTHERN BUOY              46 43  150/ 14/ 16 1001.4F         2/ 4
WAUKEGAN HARBOR            43     150/ 10/ 13   N/A
HARRISON CRIB              46     150/ 11/ 12   N/A
BURNHAM HARBOR             43     150/  5/ 11   N/A
CALUMET HARBOR             51     150/  9/ 12  999.6F
MICHIGAN CITY              51     120/ 10/ 13   N/A
$$

ILZ025>027-034>036-040-047-049-050-058-095>099-232100-
WEST-CENTRAL ILLINOIS

CITY           SKY/WX    TMP DP  RH WIND       PRES   REMARKS
QUINCY         LGT RAIN  53  52  96 S9        29.39F FOG
GALESBURG*     LGT RAIN  52  51  97 SE7       29.41F
MACOMB*        RAIN      53  52  99 S10       29.43F
JACKSONVILLE*  LGT RAIN  55  53  92 SE10      29.42F
PITTSFIELD*    CLOUDY    55  52  92 SE12      29.41F
$$

ILZ028>032-037-038-041>044-048-051>054-059>061-232100-
CENTRAL ILLINOIS

CITY           SKY/WX    TMP DP  RH WIND       PRES   REMARKS
PONTIAC        LGT RAIN  52  51  95 SE13      29.50F
BLOOMINGTON    LGT RAIN  51  50  97 SE17G24   29.48F FOG
DECATUR        RAIN      51  50  96 SE16      29.48F FOG
PEORIA         LGT RAIN  54  49  83 S9G20     29.44F
LACON*         DRIZZLE   52  48  86 SE9       29.45F
LINCOLN*       LGT RAIN  53  50  90 SE17      29.45F
SPRINGFIELD    RAIN      53  50  89 SE16      29.44F FOG
TAYLORVILLE    RAIN      50  48  93 SE14G21   29.46F
$$

ILZ033-039-045-046-055>057-062-063-232100-
EAST-CENTRAL ILLINOIS

CITY           SKY/WX    TMP DP  RH WIND       PRES   REMARKS
CHAMPAIGN      LGT RAIN  51  50  96 SE14      29.51F FOG
DANVILLE*      RAIN      51  50  97 SE10      29.52F
RANTOUL*       LGT RAIN  52  51  95 SE15      29.52F
MATTOON        LGT RAIN  51  49  92 SE15      29.50F
PARIS*         DRIZZLE   51  51  99 SE13      29.54F
$$

ILZ079-100>102-232100-
SOUTHWEST ILLINOIS

CITY           SKY/WX    TMP DP  RH WIND       PRES   REMARKS
ALTON          RAIN      52  52 100 SE14      29.44F FOG
BELLEVILLE     LGT RAIN  53  53 100 E6        29.43F FOG
CAHOKIA*       RAIN      55  53  93 SE8       29.42F FOG
SPARTA*        LGT RAIN  53  52  97 SE12      29.43F
$$

ILZ064>066-069>071-074>076-080>082-084>086-088>090-092>094-232100-
SOUTH-CENTRAL ILLINOIS

CITY           SKY/WX    TMP DP  RH WIND       PRES   REMARKS
CARBONDALE     LGT RAIN  53  51  93 E9        29.44F FOG
CAIRO*         RAIN      58  55  88 E8        29.42F
EFFINGHAM*     CLOUDY    51  48  89 SE14G20   29.50F
MARION         LGT RAIN  54  52  94 SE14      29.46F
MT. VERNON     CLOUDY    52  46  82 SE5       29.48F
CENTRALIA*     LGT RAIN  52  49  89 SE10      29.46F
SALEM*         RAIN      54  50  89 SE8       29.48F
METROPOLIS*    RAIN      55  55 100 E6        29.44F
$$

ILZ067-068-072-073-078-083-087-091-232100-
SOUTHEAST ILLINOIS

CITY           SKY/WX    TMP DP  RH WIND       PRES   REMARKS
LAWRENCEVILLE  RAIN      52  52 100 SE6       29.53F FOG
FLORA*         LGT RAIN  51  50  95 SE8       29.51F
FAIRFIELD*     LGT RAIN  52  51  95 SE7       29.49F
HARRISBURG*    RAIN      55  55 100 E7        29.48F
ROBINSON*      RAIN      52  51  97 SE10      29.54F
CARMI*         RAIN      54  53  97 SE8       29.50F
$$

ABBREVIATIONS USED IN REMARKS
   TC - TEMPERATURE IN CELSIUS
  WCI - WIND CHILL INDEX
   HX - HEAT INDEX
  VSB - VISIBILITY
$$




USA.gov is the U.S. government's official web portal to all federal, state and local government web resources and services.